[[{"header":{"parameterUnit":"m.s-1","parameterCategory":1,"la1":30.2991,"la2":30.254,"lo1":-89.0895,"lo2":-89.0444,"dy":0.0017,"dx":0.0017,"nx":28,"ny":28,"refTime":"2025-12-16T03:00:00:Z","depth":0,"parameterNumber":2,"parameterNumberName":"U-component_of_WINDS"},"data":[0,0,0,0,0,0,0,0,0,0,0,0,0,0,0,0,0,0,0,0,0,0,0,0,0,0,0,0,0,0,0,0,0,0,0,0,0,0,0,0,0,0,0,0,0,0,0,0,0,0,0,0,0,0,0,0,0,0,-0.633,-0.6331,0,-0.6377,-0.6378,-0.6378,-0.6352,-0.635,-0.6349,-0.6348,-0.6396,-0.6398,-0.6401,0,0,0,0,0,0,0,0,0,0,0,0,0,-0.6217,-0.6219,-0.633,-0.6331,-0.6332,-0.6377,-0.6378,-0.6378,-0.6352,-0.635,-0.6349,-0.6347,-0.6395,-0.6398,-0.6401,0,0,0,0,0,0,0,0,0,0,0,0,0,-0.6265,-0.622,-0.633,-0.6324,-0.6324,-0.6377,-0.6378,-0.6379,-0.6352,-0.635,-0.6348,-0.6346,-0.6394,-0.6398,-0.6401,-0.6464,0,0,-0.6413,-0.6414,0,0,0,0,0,0,0,0,-0.6262,-0.6269,-0.6324,-0.6324,-0.6324,-0.6357,-0.6355,-0.6407,-0.6353,-0.6341,-0.6348,-0.6345,-0.6384,-0.6389,-0.6402,-0.6466,-0.6468,-0.6413,-0.6415,-0.6417,-0.6418,0,0,0,0,0,0,0,-0.6259,-0.6267,-0.6349,-0.6325,-0.6325,-0.6318,-0.6323,-0.6365,-0.6373,-0.6342,-0.634,-0.6346,-0.6384,-0.6398,-0.6403,-0.6469,-0.6413,-0.6416,-0.6419,-0.642,-0.6585,-0.6587,0,0,0,0,0,0,-0.6256,-0.6265,-0.6347,-0.635,-0.6288,-0.6322,-0.6327,-0.6348,-0.6373,-0.6375,-0.6348,-0.6345,-0.6393,-0.6398,-0.6404,-0.6478,-0.6417,-0.642,-0.6423,-0.6583,-0.6586,-0.6588,0,0,0,0,0,0,-0.6254,-0.6264,-0.6345,-0.6307,-0.6317,-0.6326,-0.635,-0.635,-0.6364,-0.6377,-0.6378,-0.6361,-0.6392,-0.6399,-0.6449,-0.6479,-0.6422,-0.6426,-0.658,-0.6584,-0.6587,-0.6627,0,0,0,0,0,0,-0.6251,-0.6263,-0.6287,-0.6308,-0.6319,-0.639,-0.6352,-0.6352,-0.6371,-0.6367,-0.639,-0.6392,-0.6391,-0.6443,-0.6453,-0.6484,-0.6428,-0.6578,-0.6582,-0.6586,-0.6623,-0.6631,-0.6638,0,0,0,0,0,-0.6247,-0.6297,-0.6289,-0.6299,-0.6349,-0.6392,-0.6398,-0.6396,-0.6374,-0.6398,-0.6405,-0.6391,-0.6475,-0.6449,-0.6459,-0.6491,-0.6576,-0.6581,-0.6585,-0.6619,-0.6629,-0.6638,0,0,0,0,0,0,-0.6281,-0.63,-0.6291,-0.6349,-0.6369,-0.6387,-0.6417,-0.6407,-0.6433,-0.6429,-0.6425,-0.643,-0.6482,-0.6492,-0.6462,-0.6552,-0.6522,-0.6529,-0.6544,-0.6554,-0.6561,-0.6558,-0.6432,0,0,0,0,0,-0.6295,-0.6328,-0.6342,-0.6392,-0.6403,-0.6408,-0.6427,-0.6423,-0.6443,-0.6452,-0.6463,-0.6484,-0.6514,-0.6535,-0.6564,-0.6624,-0.6628,-0.6651,-0.6659,-0.6665,-0.6671,-0.6703,-0.6713,-0.6604,-0.6604,-0.6603,0,0,-0.6324,-0.6339,-0.636,-0.64,-0.6414,-0.6448,-0.6416,-0.6453,-0.6478,-0.6457,-0.6505,-0.6514,-0.6536,-0.6591,-0.6616,-0.6601,-0.6702,-0.6671,-0.6676,-0.6679,-0.6709,-0.6719,-0.6729,-0.6607,-0.6606,-0.6606,0,0,-0.6396,-0.641,-0.6453,-0.6468,-0.6491,-0.6494,-0.6505,-0.6524,-0.6529,-0.6577,-0.6562,-0.6591,-0.6645,-0.6661,-0.6676,-0.6752,-0.6739,-0.6761,-0.6801,-0.6832,-0.6841,-0.6848,-0.6875,-0.6884,-0.6767,-0.6768,-0.6768,0,-0.643,-0.648,-0.6476,-0.6514,-0.6532,-0.6515,-0.6558,-0.6573,-0.6604,-0.6616,-0.6599,-0.6665,-0.6678,-0.6736,-0.6755,-0.6768,-0.6779,-0.6759,-0.684,-0.6847,-0.6854,-0.688,-0.689,-0.677,-0.677,-0.677,-0.6769,0,-0.652,-0.6555,-0.6587,-0.6617,-0.6638,-0.6678,-0.668,-0.6702,-0.6696,-0.6701,-0.6749,-0.6765,-0.6797,-0.681,-0.6806,-0.6868,-0.6857,-0.684,-0.6809,-0.6868,-0.6891,-0.6901,-0.6774,-0.6773,-0.6772,-0.6771,0,0,-0.6615,-0.6641,-0.6653,-0.6666,-0.6689,-0.6716,-0.6755,-0.6786,-0.6804,-0.6826,-0.6858,-0.6903,-0.6887,-0.6904,-0.6901,-0.6928,-0.6986,-0.6907,-0.6908,-0.6921,-0.7054,-0.7067,-0.7078,-0.6978,-0.698,-0.6981,-0.7052,0,-0.6687,-0.6755,-0.6752,-0.6816,-0.6848,-0.6831,-0.6865,-0.6883,-0.6888,-0.6916,-0.6922,-0.6953,-0.693,-0.694,-0.6966,-0.6973,-0.7013,-0.6968,-0.7007,-0.7009,-0.7002,-0.7091,-0.7104,-0.7171,-0.7062,-0.7063,-0.7064,0,-0.678,-0.6804,-0.6871,-0.6889,-0.6902,-0.6933,-0.696,-0.6986,-0.7006,-0.7008,-0.7026,-0.7018,-0.7057,-0.7025,-0.7079,-0.7048,-0.7064,-0.707,-0.7072,-0.7076,-0.704,-0.7096,-0.7192,-0.7202,-0.7079,-0.7078,-0.7077,0,-0.6841,-0.6891,-0.6937,-0.6948,-0.697,-0.6992,-0.7002,-0.702,-0.7038,-0.7061,-0.7073,-0.7101,-0.7116,-0.7138,-0.7138,-0.7114,-0.7191,-0.7159,-0.7194,-0.7194,-0.721,-0.7209,-0.731,-0.7221,-0.7221,-0.7221,-0.7221,0,-0.6922,-0.6963,-0.6964,-0.6993,-0.7038,-0.7034,-0.7079,-0.7087,-0.7103,-0.7132,-0.712,-0.7147,-0.7145,-0.7173,-0.7173,-0.7216,-0.7224,-0.7226,-0.7225,-0.7227,-0.7226,-0.7237,-0.7232,-0.7224,-0.7223,-0.7223,-0.7222,0,-0.6998,-0.7001,-0.7049,-0.7066,-0.7071,-0.7103,-0.7117,-0.7144,-0.7148,-0.7185,-0.7193,-0.7199,-0.7231,-0.7233,-0.727,-0.727,-0.7323,-0.7317,-0.7316,-0.7315,-0.7349,-0.7345,-0.7459,-0.7474,-0.7376,-0.7377,-0.7378,0,-0.7049,-0.708,-0.71,-0.7118,-0.7129,-0.716,-0.7178,-0.7175,-0.7194,-0.7218,-0.7242,-0.7272,-0.7297,-0.7348,-0.7356,-0.7384,-0.7379,-0.7417,-0.7383,-0.7383,-0.7379,-0.7377,-0.7379,-0.7423,-0.7424,-0.7425,-0.7426,0,-0.7139,-0.7139,-0.7165,-0.7192,-0.7214,-0.7236,-0.7255,-0.7271,-0.727,-0.7293,-0.7325,-0.7344,-0.7381,-0.7411,-0.7438,-0.7448,-0.7437,-0.7437,-0.7446,-0.7448,-0.7445,-0.7446,-0.7333,-0.7434,-0.7433,-0.7433,-0.7432,-0.7432,-0.7204,-0.7231,-0.7248,-0.7278,-0.7292,-0.7311,-0.7336,-0.7343,-0.737,-0.7399,-0.7396,-0.7432,-0.7449,-0.7484,-0.7496,-0.7524,-0.7511,-0.7525,-0.7528,-0.7531,-0.7535,-0.7441,-0.7529,-0.7529,-0.7529,-0.7528,-0.7528,0,-0.7293,-0.7303,-0.7331,-0.7358,-0.7381,-0.7368,-0.7389,-0.7409,-0.7441,-0.7458,-0.7482,-0.7519,-0.7548,-0.7557,-0.7585,-0.7606,-0.7601,-0.7613,-0.7611,-0.7614,-0.7545,-0.7534,-0.7616,-0.7616,-0.7616,-0.7616,-0.7616,-0.7616,-0.7342,-0.7386,-0.7387,-0.7438,-0.7448,-0.7482,-0.7495,-0.7512,-0.7525,-0.7567,-0.7591,-0.7596,-0.7611,-0.7639,-0.7665,-0.7667,-0.7678,-0.7692,-0.7692,-0.7628,-0.7619,-0.761,-0.76,-0.7695,-0.7695,-0.7758,-0.7759,-0.7759]},{"header":{"parameterUnit":"m.s-1","parameterCategory":1,"la1":30.2991,"la2":30.254,"lo1":-89.0895,"lo2":-89.0444,"dy":0.0017,"dx":0.0017,"nx":28,"ny":28,"refTime":"2025-12-16T03:00:00:Z","depth":0,"parameterNumber":3,"parameterNumberName":"V-component_of_WINDS"},"data":[0,0,0,0,0,0,0,0,0,0,0,0,0,0,0,0,0,0,0,0,0,0,0,0,0,0,0,0,0,0,0,0,0,0,0,0,0,0,0,0,0,0,0,0,0,0,0,0,0,0,0,0,0,0,0,0,0,0,-1.5039,-1.504,0,-1.5139,-1.514,-1.5141,-1.5158,-1.5157,-1.5156,-1.5155,-1.5257,-1.526,-1.5264,0,0,0,0,0,0,0,0,0,0,0,0,0,-1.4861,-1.4864,-1.5039,-1.504,-1.5041,-1.5139,-1.514,-1.5141,-1.5158,-1.5157,-1.5156,-1.5155,-1.5256,-1.526,-1.5264,0,0,0,0,0,0,0,0,0,0,0,0,0,-1.4947,-1.4865,-1.5039,-1.5061,-1.5065,-1.5138,-1.514,-1.5142,-1.5158,-1.5157,-1.5156,-1.5154,-1.5254,-1.5259,-1.5265,-1.5323,0,0,-1.5281,-1.5283,0,0,0,0,0,0,0,0,-1.4942,-1.4954,-1.5057,-1.506,-1.5064,-1.5135,-1.5115,-1.5202,-1.5159,-1.5123,-1.5155,-1.5154,-1.5217,-1.5225,-1.5247,-1.5327,-1.5332,-1.5281,-1.5284,-1.5287,-1.5288,0,0,0,0,0,0,0,-1.4936,-1.495,-1.5078,-1.5058,-1.5062,-1.5066,-1.5077,-1.5131,-1.5176,-1.5126,-1.5127,-1.5139,-1.5219,-1.5242,-1.5249,-1.5333,-1.5281,-1.5286,-1.5289,-1.5291,-1.5465,-1.5466,0,0,0,0,0,0,-1.4927,-1.4945,-1.5075,-1.5081,-1.4999,-1.507,-1.5082,-1.5113,-1.5175,-1.5184,-1.514,-1.5139,-1.5233,-1.5243,-1.5253,-1.5324,-1.5287,-1.5291,-1.5294,-1.5463,-1.5465,-1.5467,0,0,0,0,0,0,-1.4923,-1.4938,-1.5071,-1.5013,-1.5031,-1.5075,-1.5109,-1.5116,-1.5139,-1.5186,-1.5194,-1.5155,-1.5233,-1.5246,-1.5305,-1.5328,-1.5294,-1.5299,-1.5462,-1.5464,-1.5466,-1.5468,0,0,0,0,0,0,-1.4917,-1.4937,-1.496,-1.5014,-1.5034,-1.5122,-1.511,-1.5119,-1.5148,-1.5148,-1.5203,-1.521,-1.5233,-1.5297,-1.531,-1.5335,-1.5303,-1.546,-1.5463,-1.5465,-1.5466,-1.547,-1.5473,0,0,0,0,0,-1.4911,-1.4956,-1.4961,-1.4976,-1.5063,-1.5123,-1.5135,-1.516,-1.515,-1.5173,-1.5203,-1.5209,-1.5323,-1.5303,-1.5318,-1.5344,-1.5458,-1.5462,-1.5465,-1.5464,-1.5469,-1.5473,0,0,0,0,0,0,-1.4904,-1.4964,-1.4969,-1.5034,-1.5073,-1.5126,-1.5156,-1.5164,-1.5207,-1.5206,-1.5235,-1.5247,-1.5305,-1.533,-1.5307,-1.5403,-1.539,-1.5396,-1.5384,-1.5389,-1.5393,-1.5386,-1.5307,0,0,0,0,0,-1.491,-1.4954,-1.5004,-1.5055,-1.5075,-1.5112,-1.5139,-1.5155,-1.5197,-1.5214,-1.5248,-1.5289,-1.5334,-1.5363,-1.5407,-1.5469,-1.5481,-1.5495,-1.5498,-1.5501,-1.5507,-1.5541,-1.5547,-1.5478,-1.5477,-1.5477,0,0,-1.4922,-1.4961,-1.4987,-1.5055,-1.5087,-1.5132,-1.5126,-1.5174,-1.5207,-1.5221,-1.5279,-1.5305,-1.5352,-1.5413,-1.5442,-1.5436,-1.5528,-1.5505,-1.5507,-1.5511,-1.5545,-1.5551,-1.5557,-1.548,-1.5479,-1.5479,0,0,-1.4968,-1.5002,-1.5048,-1.5081,-1.513,-1.5154,-1.5165,-1.5216,-1.5234,-1.5293,-1.5304,-1.5343,-1.5421,-1.5453,-1.548,-1.5536,-1.5543,-1.555,-1.5569,-1.5602,-1.5607,-1.5612,-1.5632,-1.5639,-1.5555,-1.5555,-1.5555,0,-1.4978,-1.5046,-1.5071,-1.5118,-1.5147,-1.5162,-1.5208,-1.5238,-1.5299,-1.5319,-1.5312,-1.5408,-1.5441,-1.5509,-1.5523,-1.5544,-1.5557,-1.5544,-1.5605,-1.561,-1.5615,-1.5634,-1.5641,-1.5555,-1.5555,-1.5555,-1.5555,0,-1.5055,-1.5101,-1.5133,-1.5191,-1.5224,-1.527,-1.5302,-1.5332,-1.5344,-1.5368,-1.5427,-1.5467,-1.5518,-1.5536,-1.5548,-1.5606,-1.5601,-1.5599,-1.5586,-1.5622,-1.564,-1.5648,-1.5556,-1.5556,-1.5556,-1.5555,0,0,-1.5101,-1.5171,-1.5182,-1.5208,-1.5263,-1.5299,-1.5345,-1.5396,-1.5421,-1.5462,-1.5501,-1.5565,-1.5563,-1.5594,-1.561,-1.5639,-1.568,-1.5633,-1.5635,-1.564,-1.5745,-1.5746,-1.5754,-1.5684,-1.5686,-1.5687,-1.5741,0,-1.5153,-1.5237,-1.526,-1.5331,-1.5374,-1.5387,-1.5427,-1.5465,-1.5488,-1.5527,-1.5553,-1.5598,-1.5593,-1.5611,-1.564,-1.5669,-1.5701,-1.5665,-1.5721,-1.5723,-1.5709,-1.5764,-1.5766,-1.5815,-1.5748,-1.5749,-1.575,0,-1.5226,-1.5268,-1.5343,-1.539,-1.5409,-1.5445,-1.5493,-1.553,-1.5572,-1.5587,-1.562,-1.5633,-1.5681,-1.5665,-1.5732,-1.5707,-1.5731,-1.5748,-1.5751,-1.5757,-1.5739,-1.5772,-1.5831,-1.5838,-1.5762,-1.5761,-1.576,0,-1.5251,-1.5326,-1.5381,-1.5403,-1.546,-1.5485,-1.5509,-1.555,-1.5579,-1.562,-1.5638,-1.5685,-1.571,-1.5745,-1.577,-1.5757,-1.5834,-1.5821,-1.5848,-1.5848,-1.5865,-1.5863,-1.5929,-1.5879,-1.5879,-1.5879,-1.5879,0,-1.5308,-1.5353,-1.5393,-1.5427,-1.5477,-1.5503,-1.5552,-1.5577,-1.5613,-1.5651,-1.5665,-1.5701,-1.5731,-1.5771,-1.579,-1.5842,-1.5853,-1.5867,-1.5871,-1.5866,-1.5864,-1.5882,-1.588,-1.5881,-1.5881,-1.588,-1.588,0,-1.5346,-1.5374,-1.5434,-1.5483,-1.5496,-1.5531,-1.5573,-1.5605,-1.5628,-1.5676,-1.5689,-1.5726,-1.5772,-1.5801,-1.586,-1.5873,-1.593,-1.5933,-1.5916,-1.5918,-1.5944,-1.5941,-1.6024,-1.6036,-1.5978,-1.5978,-1.5979,0,-1.538,-1.5415,-1.5467,-1.5494,-1.5519,-1.5561,-1.559,-1.5616,-1.5645,-1.5695,-1.5721,-1.5769,-1.5808,-1.5882,-1.5914,-1.5959,-1.5964,-1.5989,-1.5971,-1.5963,-1.5964,-1.5962,-1.5965,-1.5993,-1.5993,-1.5994,-1.5994,0,-1.5438,-1.545,-1.5492,-1.5537,-1.5571,-1.5609,-1.5646,-1.5666,-1.5698,-1.573,-1.5778,-1.5809,-1.5869,-1.5916,-1.5963,-1.5988,-1.5996,-1.5999,-1.6008,-1.6003,-1.5992,-1.5998,-1.5925,-1.5998,-1.5997,-1.5997,-1.5997,-1.5997,-1.5476,-1.5507,-1.5548,-1.5593,-1.5624,-1.5658,-1.569,-1.5717,-1.5758,-1.5809,-1.5821,-1.5871,-1.5911,-1.5975,-1.6001,-1.604,-1.6036,-1.6049,-1.6052,-1.6055,-1.6056,-1.5984,-1.6049,-1.6049,-1.6049,-1.6049,-1.6049,0,-1.5535,-1.5561,-1.5602,-1.5654,-1.5689,-1.5693,-1.5733,-1.5763,-1.5806,-1.5843,-1.5881,-1.5935,-1.598,-1.6015,-1.6061,-1.6086,-1.609,-1.6097,-1.6096,-1.6101,-1.6057,-1.6045,-1.6092,-1.6092,-1.6092,-1.6092,-1.6092,-1.6092,-1.557,-1.5623,-1.5639,-1.5707,-1.5733,-1.5783,-1.5805,-1.5836,-1.5865,-1.5926,-1.5963,-1.5985,-1.602,-1.6069,-1.611,-1.6119,-1.6135,-1.6141,-1.6151,-1.6109,-1.6104,-1.61,-1.6089,-1.6145,-1.6145,-1.6192,-1.6192,-1.6193]}]]